Flag for U.S.A. Weather past 2 weeks in Davis, California, U.S.A.

Now
63 °F

Partly sunny.


Feels Like: 63 °F
Forecast: 55 / 89 °F
Wind: 7 mph from South

Location: Sacramento International Airport

Current Time: May 30, 2015 at 10:07:09 AM

Latest Report: May 30, 2015 at 8:53 AM


Visibility: 10 mi

Pressure: 29.90 "Hg

Humidity: 70%

Dew point: 53 °F

Location of DavisLocation

Historic Weather in Davis — Graph

°F

Davis temperature yesterday

Maximum temperature yesterday: 88 °F (at 4:53 PM)
Minimum temperature yesterday: 53 °F (at 4:53 AM)
Average temperature yesterday: 69 °F

Past Weeks' High & Low Weather Summary

 TemperatureHumidityPressure
High88 °F (May 29, 4:53 PM)89% (May 21, 6:53 AM)30.07 "Hg (May 21, 6:53 AM)
Low51 °F (May 21, 6:53 AM)21% (May 29, 4:53 PM)29.82 "Hg (May 15, 4:53 PM)
Average63 °F64%29.92 "Hg
* Reported May 15 8:53 AM — May 30 8:53 AM, Davis, Weather by CustomWeather, © 2015

Note: Actual official high and low records may vary slightly from our data, if they occured in-between our weather recording intervals... More about our weather records

Advertising

Davis weather history for previous 24 hours

 ConditionsComfort  
Time TempWeatherWind HumidityBarometerVisibility
8:53 AM
Sat, May 30
63 °FPartly sunny.7 mph70%29.90 "Hg10 mi
7:53 AM57 °FScattered clouds.10 mph81%29.89 "Hg10 mi
6:53 AM55 °FPartly sunny.8 mph87%29.88 "Hg10 mi
5:53 AM54 °FPassing clouds.8 mph86%29.86 "Hg10 mi
4:53 AM55 °FPassing clouds.9 mph83%29.85 "Hg10 mi
3:53 AM56 °FPassing clouds.8 mph81%29.84 "Hg10 mi
2:53 AM57 °FPassing clouds.10 mph81%29.85 "Hg10 mi
1:53 AM58 °FPassing clouds.9 mph78%29.85 "Hg10 mi
12:53 AM59 °FPassing clouds.10 mph75%29.86 "Hg10 mi
11:53 PM
Fri, May 29
60 °FPassing clouds.13 mph72%29.85 "Hg10 mi
10:53 PM61 °FPassing clouds.9 mph72%29.85 "Hg10 mi
9:53 PM65 °FPassing clouds.14 mph68%29.85 "Hg10 mi
8:53 PM70 °FScattered clouds.14 mph59%29.83 "Hg10 mi
7:53 PM77 °FScattered clouds.12 mph45%29.82 "Hg10 mi
6:53 PM84 °FScattered clouds.12 mph26%29.82 "Hg10 mi
5:53 PM87 °FPartly sunny.10 mph26%29.83 "Hg10 mi
4:53 PM88 °FPartly sunny.6 mph21%29.84 "Hg10 mi
3:53 PM86 °FPartly sunny.5 mph29%29.85 "Hg10 mi
2:53 PM85 °FPartly sunny.5 mph35%29.86 "Hg10 mi
1:53 PM84 °FScattered clouds.5 mph37%29.89 "Hg10 mi
12:53 PM81 °FScattered clouds.6 mph41%29.90 "Hg10 mi
11:53 AM75 °FScattered clouds.5 mph48%29.92 "Hg10 mi
10:53 AM71 °FScattered clouds.7 mph53%29.93 "Hg10 mi
Weather by CustomWeather, © 2015

See weather overviewHow to use our weather pages